Content
SEND FEEDBACK

Daily
Averages
Monthly
Summary
United States of America

PUT IN BAY, OHIO


Home > North America > United States > Ohio
Elevation: 561 feet     Latitude: 41 39N     Longitude: 082 48W

WEATHER
 
SELECT A DAY
Number of Records: 121,550;   Date Range: 12/10/00 - 4/23/14
 
SHARE

PRINT THIS DATA

[ ← Previous Day ]
WEATHER ALMANAC - APRIL 8, 2013
[ Next Day → ]
[ °C ]   °F
Weather ElementAverageHighLow
Temperature46.9 °F63.1 °F (6:00 pm)34 °F (4:00 am)
Dewpoint39.4 °F51.6 °F (6:00 pm)29.8 °F (3:00 am)
Humidity74.7 %92 % (3:00 pm)57 % (8:00 pm)
Barometer29.90 in30.06 in (1:00 am)29.72 in (6:00 pm)
Wind Speed7.4 mph19.6 mph (6:00 pm)
Wind Gust27.6 mph (7:00 pm)
Weather ElementAverage
Wind DirectionSSE (151.1 °)

Weather ElementTotal
Precipitation0.07 in
Heating Degree Days16.5 (Base 65)
Averaged from 27 records on April 8, 2013
WEATHER CONDITIONS BREAKOUT
WIND DIRECTION BREAKOUT
WEATHER BY HOUR - APRIL 8, 2013
[ °C ]   °F
Local TimeTemperatureDewpointHumidityBarometerVisibilityWind DirectionWind SpeedGust SpeedPrecipitationEventsConditions
1:00 AM37.0 °F30.7 °F78 %30.06 inEast (100°)1.2 mph
2:00 AM35.0 °F31.0 °F78 %30.06 inEast (100°)1.2 mph
2:00 AM35.1 °F30.6 °F84 %30.06 inEast (100°)1.2 mph
3:00 AM34.7 °F29.8 °F82 %30.04 inEast (90°)2.3 mph
4:00 AM34.0 °F30.2 °F86 %30.03 inESE (110°)1.2 mph
5:00 AM34.9 °F31.8 °F89 %30.02 inESE (110°)2.3 mph
6:00 AM35.6 °F31.5 °F85 %30.00 inEast (100°)2.3 mph
7:00 AM38.1 °F33.4 °F83 %30.00 inESE (110°)3.5 mph
8:00 AM41.0 °F35.0 °F71 %30.00 inESE (110°)5.8 mph
8:00 AM41.0 °F34.7 °F78 %30.00 inESE (110°)5.8 mph
9:00 AM43.7 °F35.4 °F73 %29.99 inESE (120°)8.1 mph
10:00 AM46.0 °F36.1 °F68 %29.96 inSE (130°)8.1 mph
11:00 AM46.4 °F36.3 °F68 %29.93 inESE (120°)9.2 mph17.3 mph
12:00 PM47.3 °F38.5 °F71 %29.89 inESE (120°)8.1 mph
1:00 PM47.1 °F38.3 °F71 %29.85 inESE (120°)6.9 mph
2:00 PM48.0 °F39.0 °F63 %29.81 inESE (120°)6.9 mph
2:00 PM48.2 °F39.2 °F71 %29.81 inESE (120°)6.9 mph
3:00 PM46.6 °F44.4 °F92 %29.80 inESE (120°)5.8 mph0.07 in
4:00 PM49.1 °F46.8 °F92 %29.77 inSE (140°)4.6 mph
5:00 PM55.0 °F50.5 °F85 %29.74 inSouth (170°)9.2 mph
6:00 PM63.1 °F51.6 °F66 %29.72 inSSW (210°)19.6 mph
7:00 PM61.5 °F50.0 °F66 %29.73 inSW (230°)16.1 mph27.6 mph
8:00 PM62.0 °F51.0 °F57 %29.76 inWSW (240°)13.8 mph
8:00 PM61.5 °F50.5 °F67 %29.76 inWSW (240°)13.8 mph21.9 mph
9:00 PM61.3 °F50.0 °F66 %29.81 inWest (270°)11.5 mph
10:00 PM58.5 °F44.4 °F60 %29.87 inWest (280°)12.7 mph
11:00 PM54.9 °F43.5 °F66 %29.91 inWNW (290°)10.4 mph
Hourly data recorded from CXHA, located 26.74 miles away from Put In Bay, Ohio







STORIES FROM OUR PARTNERS